SNUSAT 1B
1 42727U 98067MG 19024.78607141 .00109870 00000-0 39571-3 0 9995
2 42727 51.6286 295.7865 0000742 8.0524 352.0492 15.87858540 95444
QBITO
1 42728U 98067MH 19024.89226815 .00289518 46412-4 54877-3 0 9998
2 42728 51.6264 286.0082 0003071 164.8197 195.2905 16.00215448 95424
Aalto-2
1 42729U 98067MJ 19024.89289335 .00464218 11334-3 60970-3 0 9992
2 42729 51.6192 283.5213 0004495 188.7235 171.3700 16.06270160 95462
SUSat
1 42730U 98067MK 19024.18259489 .00111685 00000-0 36622-3 0 9992
2 42730 51.6303 296.3010 0002072 117.9326 242.1889 15.89727908 95225
PolyITAN-2-SAU
1 42732U 98067MM 19024.81882709 .00478429 12238-3 57820-3 0 9995
2 42732 51.6225 283.0300 0004016 207.7656 152.3143 16.07594149 95505
Aoxiang-1
1 42735U 98067MQ 19024.81532873 .00034670 00000-0 19517-3 0 9990
2 42735 51.6331 304.9286 0003164 31.9425 67.2335 15.78859705 96581
BeEagleSat
1 42736U 98067MR 19024.83801166 .00072575 00000-0 31467-3 0 9991
2 42736 51.6297 298.4636 0002472 34.8911 325.2254 15.84190867 95368
CAS-4B
1 42759U 17034B 19024.81554175 .00000098 00000-0 19607-4 0 9998
2 42759 43.0205 306.4073 0009757 52.6455 344.8876 15.09470099 88944
CAS-4A
1 42761U 17034D 19024.85416862 .00000009 00000-0 14079-4 0 9995
2 42761 43.0191 305.8254 0010161 54.7719 353.3676 15.09545865 88949
UCLSat
1 42765U 17036A 19024.81916618 .00001070 00000-0 49306-4 0 9991
2 42765 97.3726 85.7911 0012218 26.8634 333.3232 15.22376974 88421
NIUSat
1 42766U 17036B 19024.10792675 .00000735 00000-0 36321-4 0 9999
2 42766 97.3726 83.8687 0016126 16.8536 343.3232 15.20813832 88106
LituanicaSAT 2
1 42768U 17036D 19024.39727800 .00001641 00000-0 74257-4 0 9997
2 42768 97.3753 84.9324 0015630 16.9124 343.2630 15.22204049 88209
Aalto 1
1 42775U 17036L 19024.75087588 .00000689 00000-0 33991-4 0 9998
2 42775 97.3715 84.7902 0014427 15.5302 344.6373 15.21091140 88171
URSA MAIOR
1 42776U 17036M 19024.19712595 .00000670 00000-0 33045-4 0 9990
2 42776 97.3723 84.3522 0014273 17.4745 342.6979 15.21205476 88096
Max Valier Sat
1 42778U 17036P 19024.81090383 .00000737 00000-0 35512-4 0 9990
2 42778 97.3756 85.5285 0012847 20.5752 339.5999 15.21729510 88201
Pegasus
1 42784U 17036V 19024.16325759 .00000895 00000-0 41992-4 0 9997
2 42784 97.3731 85.0143 0012833 28.8885 331.3059 15.22150083 88124
NUDATSat
1 42787U 17036Y 19024.83621412 .00001256 00000-0 56386-4 0 9994
2 42787 97.3763 86.1345 0013218 22.2220 337.9583 15.22950145 88094
SUCHAI 1
1 42788U 17036Z 19024.40406309 .00001123 00000-0 51408-4 0 9997
2 42788 97.3733 85.4582 0012375 27.9034 332.2864 15.22502988 88240
SKCUBE
1 42789U 17036AA 19023.62289663 .00000998 00000-0 46089-4 0 9991
2 42789 097.3732 084.6605 0012301 030.6233 329.5719 15.22427986088048
VZLUSAT 1
1 42790U 17036AB 19023.64081747 .00001368 00000-0 61159-4 0 9995
2 42790 097.3742 084.9637 0011859 030.5222 329.6702 15.22955124088068
VENTA 1
1 42791U 17036AC 19023.59908638 .00000976 00000-0 45112-4 0 9992
2 42791 097.3730 084.6864 0011976 031.4958 328.6993 15.22454225088035
Robusta 1B
1 42792U 17036AD 19024.16082033 .00001020 00000-0 46845-4 0 9994
2 42792 97.3730 85.2994 0011849 29.9153 330.2759 15.22588548 88142
D-SAT
1 42794U 17036AF 19024.38345627 .00000049 00000-0 99915-5 0 9998
2 42794 97.5619 75.3090 0125242 265.7902 92.8996 14.91007272 86680
BIRD-J
1 42820U 98067MU 19024.81536547 .00074166 00000-0 34538-3 0 9991
2 42820 51.6311 302.8618 0000591 132.5821 227.5232 15.82670395 88768
BIRD-G
1 42821U 98067MV 19024.18891865 .00055939 00000-0 28845-3 0 9990
2 42821 51.6277 308.4224 0000431 137.8511 222.2523 15.80580512 88610
BIRD-M
1 42822U 98067MW 19024.16050672 .00057690 00000-0 28325-3 0 9991
2 42822 51.6332 307.5221 0000422 69.7061 290.3987 15.81632776 88625
BIRD-B
1 42823U 98067MX 19023.99858230 .00061111 00000-0 29320-3 0 9997
2 42823 51.6304 307.9386 0001070 330.6397 29.4545 15.82107220 88604
BIRD-N
1 42824U 98067MY 19024.83406965 .00069116 00000-0 34016-3 0 9997
2 42824 51.6337 304.5789 0001594 352.6068 7.4911 15.81508916 88712
TechnoSat
1 42829U 17042E 19024.78146828 .00000192 00000-0 24871-4 0 9997
2 42829 97.5803 283.5403 0014199 176.3933 183.7391 14.90915329 83343
TOMSK-TPU 120
1 42910U 98067MZ 19024.85167875 .00020952 00000-0 15630-3 0 9995
2 42910 51.6362 317.3815 0003032 348.5053 51.4446 15.72705186 82168
TANYUSHA 1
1 42911U 98067NA 19024.83667198 .00029758 00000-0 19077-3 0 9999
2 42911 51.6321 313.4112 0002840 355.6755 103.0163 15.76008776 82193
TANYUSHA 2
1 42912U 98067NB 19024.71312556 .00024517 00000-0 16913-3 0 9996
2 42912 51.6386 316.4551 0002756 10.2674 66.9977 15.74435443 82165
TNS 0-2
1 42914U 98067ND 19024.84681947 .00035410 00000-0 26022-3 0 9991
2 42914 51.6342 318.2598 0002908 351.5264 8.5684 15.72741432 82146
QIKCOM-1
1 42983U 98067NF 19024.83507527 .00003882 00000-0 57903-4 0 9998
2 42983 51.6404 346.8868 0003497 311.2284 48.8407 15.57748852 70757
AO-91
1 43017U 17073E 19024.49286852 .00000516 00000-0 46605-4 0 9990
2 43017 97.7207 311.5644 0257384 271.2203 85.9536 14.78370249 63807
EcAMSat
1 43019U 98067NG 19024.86443107 .00006705 00000-0 89446-4 0 9999
2 43019 51.6416 344.1106 0003950 284.5631 75.4924 15.59421808153112
PICSAT
1 43132U 18004X 19024.47181024 .00000983 00000-0 44586-4 0 9990
2 43132 97.5075 92.4694 0011007 50.5895 309.6314 15.23179826 57397
AO-92
1 43137U 18004AC 19024.85126486 .00000863 00000-0 39564-4 0 9995
2 43137 97.5068 92.8633 0010583 51.2708 308.9472 15.23154305 57448
TianYi 2
1 43155U 18008A 19024.79299934 .00000254 00000-0 19009-4 0 9997
2 43155 97.5036 100.2869 0019539 102.4991 40.0204 15.10899137 55946
Zhou Enlai
1 43156U 18008B 19024.79189152 .00000245 00000-0 18767-4 0 9998
2 43156 97.5075 100.2044 0016669 100.0552 42.5768 15.10388464 55929
TianYi 6
1 43158U 18008D 19024.79895590 .00000278 00000-0 20909-4 0 9997
2 43158 97.5036 99.8531 0015522 97.1563 39.3419 15.10032828 55890
S-Net G
1 43186U 18014G 19024.80815904 .00000138 00000-0 17205-4 0 9998
2 43186 97.7173 295.3001 0012114 126.7524 233.4812 14.96567075 53465
S-Net H
1 43187U 18014H 19024.80798526 .00000145 00000-0 17814-4 0 9993
2 43187 97.7171 295.2919 0012118 126.7590 233.4746 14.96567073 53462
S-Net J
1 43188U 18014J 19024.80779011 .00000133 00000-0 16728-4 0 9992
2 43188 97.7173 295.3035 0012113 126.8552 233.3782 14.96567973 53467
S-Net K
1 43189U 18014K 19024.80806859 .00000141 00000-0 17490-4 0 9990
2 43189 97.7170 295.2901 0012107 126.7014 233.5321 14.96566703 52012
FMN 1
1 43192U 18015A 19024.22351653 .00001321 00000-0 57812-4 0 9991
2 43192 97.3798 154.0808 0018254 85.8412 274.4911 15.23660989 54161
Shaonian Xing
1 43199U 18015H 19024.55328462 .00001034 00000-0 44995-4 0 9995
2 43199 97.3576 153.8171 0019105 95.7321 264.6097 15.24325589 54258
1KUNS-PF
1 43466U 98067NP 19024.31553277 .00017726 00000-0 21264-3 0 9993
2 43466 51.6401 349.4199 0000620 87.8114 272.2950 15.60993362 40171
UBAKUSAT
1 43467U 98067NQ 19024.35633529 .00011701 00000-0 15115-3 0 9992
2 43467 51.6395 350.4390 0001713 224.6705 135.4151 15.59439669 40176
Irazu
1 43468U 98067NR 19024.35620444 .00021848 00000-0 24886-3 0 9993
2 43468 51.6396 348.1885 0000860 89.0875 271.0218 15.62187828140188
EnduroSat One
1 43551U 98067NZ 19023.38466523 .00011216 00000-0 14898-3 0 9994
2 43551 51.6403 357.4391 0005583 325.3205 34.7423 15.58738424 30229
EQUISat
1 43552U 98067PA 19024.31112133 .00012298 00000-0 16576-3 0 9990
2 43552 51.6408 353.1298 0005898 327.1204 32.9421 15.58236281 30325
